Hundvaag 1 weather for Jan 1994
Month no. 79
Obs.
Da.
Temp. Dew Point Precip. Wind
Speed
Wind gusts Cloud cover Press. Humidity Wind dir. Sunny OPT
01.01.1994 -0,6   0,0             1  
02.01.1994 -1,0   0,0             1  
03.01.1994 0,2   6,1             1  
04.01.1994 1,0   0,0                
05.01.1994 2,4   0,0                
06.01.1994 4,0   0,0                
07.01.1994 3,6   0,0                
08.01.1994 1,6   0,0             1  
09.01.1994 3,7   8,1                
10.01.1994 3,2   0,6                
11.01.1994 2,6   0,0                
12.01.1994 2,4   0,0                
13.01.1994 4,5   0,0             1  
14.01.1994 3,9   2,6                
15.01.1994 2,6   7,0                
16.01.1994 -0,1   2,7                
17.01.1994 -1,0   0,0             1  
18.01.1994 2,3   0,2                
19.01.1994 4,9   10,5                
20.01.1994 4,2   26,5                
21.01.1994 6,3   3,6                
22.01.1994 2,3   16,7                
23.01.1994 3,7   10,0                
24.01.1994 2,5   9,0                
25.01.1994 0,1   8,7                
26.01.1994 2,5   3,6                
27.01.1994 2,3   8,0                
28.01.1994 1,2   8,0                
29.01.1994 -1,1   10,0                
30.01.1994 5,0   13,4                
31.01.1994 2,3   0,1                
Avrg/Sum 2,3   155,4             6